METLOCID,DATE_TIME,AVG_AIRT3M,STDDEV_AIRT3M,MIN_AIRT3M,MAX_AIRT3M,N_AIRT3M,N_COMMENTS
VAAM,11/24/94,-5.6615,0.481546576,-6.76,-5.06,20,0
VAAM,11/25/94,-2.402222222,2.722392911,-7.46,1.73,72,0
VAAM,11/26/94,-6.654861111,1.173167127,-8.67,-4.78,72,0
VAAM,11/27/94,-8.227083333,1.41801432,-10.36,-6.34,72,1
VAAM,11/28/94,-8.026944444,1.176134321,-10.43,-6.28,72,0
VAAM,11/29/94,-8.195277778,1.229565333,-10.36,-6.53,72,0
VAAM,11/30/94,-7.814583333,1.890848187,-11.38,-5.45,72,0
VAAM,12/1/94,-6.141388889,1.757688387,-9.59,-3.88,72,0
VAAM,12/2/94,-5.577083333,2.224227315,-9.61,-2.11,72,0
VAAM,12/3/94,-3.601527778,3.126243599,-9.13,0.47,72,0
VAAM,12/4/94,-2.344722222,1.854284701,-5.53,-0.2,72,0
VAAM,12/5/94,0.005,1.743589466,-3.2,3.18,72,0
VAAM,12/6/94,-1.000833333,1.673888742,-3.98,2.08,72,0
VAAM,12/7/94,-1.658333333,1.332607314,-3.75,1.07,72,0
VAAM,12/8/94,-1.024305556,1.766390309,-4.05,2.14,72,0
VAAM,12/9/94,0.585138889,1.563796386,-2.13,3.1,72,0
VAAM,12/10/94,0.488194444,1.682880936,-2.83,2.64,72,0
VAAM,12/11/94,1.050138889,2.353701007,-2.84,4.56,72,0
VAAM,12/12/94,1.295277778,2.073337768,-2.18,4.9,72,0
VAAM,12/13/94,2.145833333,2.236698239,-0.98,5.89,72,0
VAAM,12/14/94,0.691527778,1.085430608,-1.06,2.46,72,0
VAAM,12/15/94,0.600555556,1.895994212,-2.8,4.32,72,0
VAAM,12/16/94,0.251666667,1.015223558,-1.62,2.12,72,0
VAAM,12/17/94,-0.940833333,1.34750343,-3.03,1.09,72,0
VAAM,12/18/94,-0.137361111,1.671114154,-2.4,3.35,72,0
VAAM,12/19/94,0.724722222,1.795624551,-2.2,3.97,72,0
VAAM,12/20/94,-0.671111111,1.717244399,-4.33,1.83,72,0
VAAM,12/21/94,-3.020694444,0.655690855,-4.11,-1.68,72,0
VAAM,12/22/94,-1.792638889,1.827208286,-3.93,1.27,72,0
VAAM,12/23/94,-2.917916667,1.03853762,-4.54,-1.22,72,0
VAAM,12/24/94,-2.124444444,1.227055205,-4.25,0.76,72,0
VAAM,12/25/94,-3.016805556,1.402822935,-4.75,0.51,72,0
VAAM,12/26/94,-2.702083333,1.401721213,-5.21,-0.96,72,0
VAAM,12/27/94,0.178333333,1.649874942,-2.47,2.74,72,0
VAAM,12/28/94,1.661527778,1.442081496,-0.23,4,72,0
VAAM,12/29/94,1.355694444,1.629653749,-1.36,4.4,72,0
VAAM,12/30/94,1.616071429,1.434486514,-0.58,4.11,56,0
VAAM,12/31/94,0.45875,0.889935574,-0.93,1.84,24,0
VAAM,1/1/95,1.700833333,2.055721426,-1.1,5.16,24,0
VAAM,1/2/95,0.623333333,1.305725408,-1.57,2.23,24,0
VAAM,1/3/95,-3.38375,0.72208522,-4.58,-2.17,24,0
VAAM,1/4/95,-1.976666667,1.603880259,-4.18,0.48,24,0
VAAM,1/5/95,-0.937083333,1.447527064,-2.53,2.28,24,0
VAAM,1/6/95,-2.354166667,0.968306081,-3.86,-0.76,24,0
VAAM,1/7/95,0.067083333,2.589393884,-3.6,3.41,24,0
VAAM,1/8/95,1.815416667,1.814906823,-0.77,4.9,24,0
VAAM,1/9/95,1.430833333,1.610152347,-1.27,3.56,24,0
VAAM,1/10/95,1.08,1.596730355,-1.25,3.2,24,0
VAAM,1/11/95,1.575833333,2.045546417,-1.72,5.28,24,0
VAAM,1/12/95,-1.330416667,1.039813859,-3.43,0.52,24,0
VAAM,1/13/95,-2.460833333,1.245352811,-4.19,0.05,24,0
VAAM,1/14/95,-1.424583333,1.833281636,-4.29,0.78,24,0
VAAM,1/15/95,-0.757916667,1.697650497,-3.32,1.86,24,0
VAAM,1/16/95,-1.0325,1.672465636,-3.97,1.11,24,0
VAAM,1/17/95,-0.415,1.140556691,-2.5,1.77,24,0
VAAM,1/18/95,-1.76,1.457445651,-4.22,0.02,24,0
VAAM,1/19/95,-0.890833333,2.014648349,-3.81,1.51,24,0
VAAM,1/20/95,-1.987826087,1.713253037,-5.7,-0.12,23,0
VAAM,1/21/95,-0.814166667,2.317920576,-4.87,2.28,24,0
VAAM,1/22/95,0.1925,1.593271859,-2.16,3.32,24,0
VAAM,1/23/95,-1.103333333,1.451954205,-3.46,1.39,24,0
VAAM,1/24/95,-2.498333333,1.368749562,-4.7,-0.6,24,0
VAAM,1/25/95,-1.10875,2.758553989,-5.23,2.63,24,0
VAAM,1/26/95,-1.999583333,0.973279884,-3.85,-0.25,24,0
VAAM,1/27/95,-0.864583333,1.803969004,-3.28,2.39,24,0
VAAM,1/28/95,-2.170833333,0.881796174,-3.76,-0.82,24,0
VAAM,1/29/95,-2.217916667,2.430569765,-5.19,1.02,24,0
VAAM,1/30/95,-1.015416667,2.263402554,-4.25,2.19,24,0
VAAM,1/31/95,-1.714583333,2.289926863,-5.86,1.13,24,0
VAAM,2/1/95,-2.433333333,2.171728758,-5.52,0.31,24,0
VAAM,2/2/95,1.083333333,1.558973092,-1.17,3.14,24,0
VAAM,2/3/95,1.435,1.188576057,-1.11,3.44,24,0
VAAM,2/4/95,-1.7575,1.099502852,-3.52,0.33,24,0
VAAM,2/5/95,-7.846666667,1.462150491,-12.03,-4.26,24,0
VAAM,2/6/95,-5.116666667,2.917653415,-12.76,-1.96,24,0
VAAM,2/7/95,-3.3275,2.01103964,-6.85,0.7,24,0
VAAM,2/8/95,-2.623333333,2.407099403,-6.01,1.12,24,0
VAAM,2/9/95,-3.075,1.022494818,-5.01,-1.76,24,0
VAAM,2/10/95,-5.259583333,1.543436254,-8.81,-3.2,24,0
VAAM,2/11/95,-5.027083333,1.732476185,-7.63,-2.65,24,0
VAAM,2/12/95,-6.75375,2.108667027,-10.53,-4.18,24,0
VAAM,2/13/95,-4.043333333,1.240521162,-5.98,-1.8,24,0
VAAM,2/14/95,-7.865,1.81682475,-10.71,-4.69,24,0
VAAM,2/15/95,-8.268333333,2.077292692,-10.63,-4.82,24,0
VAAM,2/16/95,-10.51291667,1.985463431,-14,-7.93,24,0
VAAM,2/17/95,-9.990833333,1.289468771,-11.86,-8.16,24,0
VAAM,2/18/95,-9.743333333,1.706811588,-12.4,-6.82,24,0
VAAM,2/19/95,-10.13208333,3.570894394,-16.31,-5.05,24,0
VAAM,2/20/95,-6.08875,4.155246356,-10.94,-0.22,24,0
VAAM,2/21/95,-1.00875,2.212131202,-5.12,1.77,24,0
VAAM,2/22/95,2.72,2.545821811,-1.54,6.65,24,0
VAAM,2/23/95,-1.989166667,1.270792005,-4.3,0.3,24,0
VAAM,2/24/95,-4.885416667,1.816757693,-7.65,-2.38,24,0
VAAM,2/25/95,-8.439583333,0.708663648,-9.78,-7.39,24,0
VAAM,2/26/95,-8.688333333,1.063434414,-10.88,-6.73,24,0
VAAM,2/27/95,-10.58125,0.616972359,-11.74,-9.46,24,0
VAAM,2/28/95,-14.01291667,1.984418608,-18.86,-11.86,24,0
VAAM,3/1/95,-20.84458333,5.116729576,-26.49,-11.48,24,0
VAAM,3/2/95,-19.38625,3.792431608,-24.97,-11.79,24,0
VAAM,3/3/95,-20.44375,3.54175566,-26.68,-16.27,24,0
VAAM,3/4/95,-16.015,2.347014755,-19.22,-12.31,24,0
VAAM,3/5/95,-14.43041667,3.697700201,-18.17,-9.8,24,0
VAAM,3/6/95,-8.939166667,0.744416414,-10.54,-7.44,24,0
VAAM,3/7/95,-6.622083333,1.420119343,-10.26,-4.93,24,0
VAAM,3/8/95,-11.22375,0.8580707,-12.66,-9.48,24,0
VAAM,3/9/95,-13.94458333,0.949324607,-16.71,-12.18,24,0
VAAM,3/10/95,-20.60541667,1.802606758,-23.35,-17.55,24,0
VAAM,3/11/95,-12.21625,1.863339248,-17.58,-9.64,24,0
VAAM,3/12/95,-17.41416667,3.201589166,-21.11,-11.96,24,0
VAAM,3/13/95,-24.11541667,1.439522805,-26.36,-21.2,24,0
VAAM,3/14/95,-28.11125,0.699989519,-29.36,-26.65,24,0
VAAM,3/15/95,-30.14458333,0.848020607,-31.88,-28.87,24,0
VAAM,3/16/95,-23.55208333,4.908140513,-31.21,-16.55,24,0
VAAM,3/17/95,-19.44166667,6.279213927,-26.98,-11.39,24,0
VAAM,3/18/95,-15.9025,3.626167278,-22.54,-10.96,24,0
VAAM,3/19/95,-24.53,0.848410278,-26.25,-23.05,24,0
VAAM,3/20/95,-27.10666667,1.104841782,-29.05,-24.93,24,0
VAAM,3/21/95,-30.27416667,0.928926059,-32.12,-28.36,24,0
VAAM,3/22/95,-31.19208333,1.108029897,-32.77,-29.44,24,0
VAAM,3/23/95,-34.93083333,0.728810327,-36.02,-33.04,24,0
VAAM,3/24/95,-37.4925,0.440121031,-38.23,-36.4,24,0
VAAM,3/25/95,-37.57208333,1.225766767,-39,-35.5,24,0
VAAM,3/26/95,-33.72583333,3.564371908,-37.7,-28.5,24,0
VAAM,3/27/95,-32.61958333,0.831768567,-33.97,-31.06,24,0
VAAM,3/28/95,-32.67875,0.63817888,-33.61,-31.7,24,0
VAAM,3/29/95,-30.66541667,2.769565935,-33.87,-26.74,24,0
VAAM,3/30/95,-30.92541667,3.074113487,-36.02,-26.91,24,0
VAAM,3/31/95,-37.485,0.988437502,-38.5,-34.04,24,0
VAAM,4/1/95,-28.91291667,2.918183591,-34.16,-24.31,24,0
VAAM,4/2/95,-36.16125,0.631618435,-37.15,-34.58,24,0
VAAM,4/3/95,-36.55416667,0.446930757,-37.67,-35.94,24,0
VAAM,4/4/95,-38.93916667,0.442226744,-39.76,-37.96,24,0
VAAM,4/5/95,-39.77333333,0.403696686,-40.63,-39.15,24,0
VAAM,4/6/95,-40.25208333,0.736300855,-41.22,-39.18,24,0
VAAM,4/7/95,-36.48083333,6.810562076,-41.97,-25.46,24,0
VAAM,4/8/95,-33.37375,4.658664497,-39.34,-25.26,24,0
VAAM,4/9/95,-38.31083333,2.401292979,-40.97,-32.39,24,0
VAAM,4/10/95,-20.49958333,5.93660383,-32.72,-12.07,24,0
VAAM,4/11/95,-29.96416667,2.284739385,-32.07,-24.71,24,0
VAAM,4/12/95,-30.94875,1.288616759,-33.44,-29.14,24,0
VAAM,4/13/95,-25.98416667,7.876848805,-33.75,-11.01,24,0
VAAM,4/14/95,-11.42041667,3.320880553,-19.32,-7.57,24,0
VAAM,4/15/95,-23.51875,1.856104646,-26.53,-20.14,24,0
VAAM,4/16/95,-27.50041667,1.559725392,-29.67,-24.29,24,0
VAAM,4/17/95,-18.65333333,3.494490902,-25.29,-12.78,24,0
VAAM,4/18/95,-28.79666667,3.369936997,-33.68,-24.16,24,0
VAAM,4/19/95,-37.60708333,1.686033367,-40.06,-34.6,24,0
VAAM,4/20/95,-27.33583333,8.91976648,-40.8,-17.62,24,0
VAAM,4/21/95,-22.54791667,4.823228198,-27.39,-15.88,24,0
VAAM,4/22/95,-30.22708333,3.694036886,-35.52,-26.15,24,0
VAAM,4/23/95,-39.685,1.666600289,-42.53,-37.01,24,0
VAAM,4/24/95,-35.29416667,5.124916047,-42.27,-21.74,24,0
VAAM,4/25/95,-43.28,1.416652515,-45.06,-40.49,24,0
VAAM,4/26/95,-27.87958333,4.74683096,-43.51,-23.91,24,0
VAAM,4/27/95,-23.5175,3.122939321,-30.07,-18.81,24,0
VAAM,4/28/95,-33.49833333,1.621222477,-36.59,-30.46,24,0
VAAM,4/29/95,-39.30125,1.67756115,-41.72,-35.92,24,0
VAAM,4/30/95,-34.94333333,7.581978442,-40.59,-19.66,24,0
VAAM,5/1/95,-33.77916667,2.430272693,-37.85,-28.51,24,0
VAAM,5/2/95,-39.63958333,0.910052455,-41.68,-38.17,24,0
VAAM,5/3/95,-43.29541667,0.870601887,-44.33,-41.39,24,0
VAAM,5/4/95,-42.95458333,0.775213739,-43.92,-40.94,24,0
VAAM,5/5/95,-28.46333333,10.68417019,-41.68,-15.72,24,0
VAAM,5/6/95,-12.42625,2.706071776,-17.26,-8.04,24,0
VAAM,5/7/95,-18.84583333,2.494533008,-24.79,-15.55,24,0
VAAM,5/8/95,-31.3975,1.616774163,-32.54,-26.48,24,0
VAAM,5/9/95,-30.5275,0.638770899,-31.51,-29.46,24,0
VAAM,5/10/95,-32.72791667,0.746638724,-34.16,-31.46,24,0
VAAM,5/11/95,-31.38458333,1.388997071,-34.88,-29.44,24,0
VAAM,5/12/95,-34.035,0.876261823,-35.24,-32.1,24,0
VAAM,5/13/95,-15.29291667,3.146555714,-26.84,-13.19,24,0
VAAM,5/14/95,-16.49708333,0.768304056,-18.01,-15.14,24,0
VAAM,5/15/95,-21.6,3.587012806,-24.23,-14.14,24,0
VAAM,5/16/95,-26.08,2.267716722,-29.69,-23.32,24,0
VAAM,5/17/95,-35.43458333,2.303158472,-38.59,-29.53,24,0
VAAM,5/18/95,-37.1,2.26918296,-39.63,-32.5,24,0
VAAM,5/19/95,-34.01583333,8.220432611,-40.42,-20.32,24,0
VAAM,5/20/95,-23.60791667,4.749114315,-32.1,-19.7,24,0
VAAM,5/21/95,-35.63041667,2.103866997,-40.02,-32.1,24,0
VAAM,5/22/95,-37.8975,2.133118252,-40.87,-35.08,24,0
VAAM,5/23/95,-35.23,0.76953967,-36.35,-34.01,24,0
VAAM,5/24/95,-38.02583333,2.081834301,-40.42,-34.73,24,0
VAAM,5/25/95,-26.88,13.22101423,-38.38,-9.03,24,0
VAAM,5/26/95,-18.37916667,6.807200099,-28.82,-9.81,24,0
VAAM,5/27/95,-29.72541667,1.119320365,-31.83,-28.25,24,0
VAAM,5/28/95,-30.26208333,3.121107634,-36.9,-27.39,24,0
VAAM,5/29/95,-40.30541667,1.49286995,-42.05,-37.44,24,0
VAAM,5/30/95,-41.415,1.071962848,-43.71,-40.12,24,0
VAAM,5/31/95,-45.96208333,1.01560425,-47.32,-44,24,0
VAAM,6/1/95,-48.47666667,0.561098818,-49.12,-47.32,24,0
VAAM,6/2/95,-49.15375,0.411474681,-49.69,-48.25,24,0
VAAM,6/3/95,-48.935,0.695826065,-49.81,-47.27,24,0
VAAM,6/4/95,-40.47208333,9.76676039,-47.98,-21.21,24,0
VAAM,6/5/95,-15.62083333,2.56853353,-21.07,-13.15,24,0
VAAM,6/6/95,-21.005,3.063076033,-25.03,-13.73,24,0
VAAM,6/7/95,-29.3625,4.601734314,-35.68,-21.79,24,0
VAAM,6/8/95,-39.22291667,1.522553573,-41.54,-36.35,24,0
VAAM,6/9/95,-42.70291667,0.592778859,-43.39,-41.36,24,0
VAAM,6/10/95,-13.93416667,5.795931794,-39.66,-10.65,24,0
VAAM,6/11/95,-13.45875,1.578764824,-15.96,-11.17,24,0
VAAM,6/12/95,-25.22083333,4.995642376,-32.03,-14.65,24,0
VAAM,6/13/95,-19.85375,1.681998843,-22.24,-17.25,24,0
VAAM,6/14/95,-21.10333333,5.86484565,-28.93,-13.57,24,0
VAAM,6/15/95,-28.73166667,1.249934491,-30.56,-27.04,24,0
VAAM,6/16/95,-14.62458333,4.017985629,-27.72,-11.56,24,0
VAAM,6/17/95,-26.03041667,3.483925172,-31.55,-19.36,24,0
VAAM,6/18/95,-34.39291667,0.909082094,-35.44,-31.85,24,0
VAAM,6/19/95,-39.18708333,1.73371047,-41.94,-35.84,24,0
VAAM,6/20/95,-39.8,2.167250312,-42.31,-35.03,24,0
VAAM,6/21/95,-40.19333333,1.39809705,-41.65,-37.93,24,0
VAAM,6/22/95,-24.13541667,7.66438232,-38.69,-18.1,24,0
VAAM,6/23/95,-22.77291667,4.675269329,-30.15,-17.79,24,0
VAAM,6/24/95,-27.71666667,5.136906248,-33.28,-19,24,0
VAAM,6/25/95,-19.67208333,3.700553401,-30.36,-14.44,24,0
VAAM,6/26/95,-15.735,1.908320454,-19.63,-13.3,24,0
VAAM,6/27/95,-23.49125,5.153498864,-32.12,-17.94,24,0
VAAM,6/28/95,-27.53416667,7.107333577,-35.5,-18.83,24,0
VAAM,6/29/95,-15.25583333,6.369294491,-24.95,-4.35,24,0
VAAM,6/30/95,-5.36875,1.275318588,-7.79,-3.71,24,0
VAAM,7/1/95,-11.82375,4.506726193,-21.87,-7.99,24,0
VAAM,7/2/95,-25.47291667,2.860283475,-30.29,-21.61,24,0
VAAM,7/3/95,-27.62875,1.73237789,-29.55,-23.82,24,0
VAAM,7/4/95,-15.1775,4.466186244,-27.57,-11.31,24,0
VAAM,7/5/95,-21.79458333,3.976782596,-29.26,-16.36,24,0
VAAM,7/6/95,-31.17375,4.788010218,-35.26,-15.65,24,0
VAAM,7/7/95,-17.60291667,6.690653753,-27.41,-9.12,24,0
VAAM,7/8/95,-26.60666667,3.877770165,-32.47,-22.2,24,0
VAAM,7/9/95,-25.61666667,8.78781749,-34.58,-14.17,24,0
VAAM,7/10/95,-22.66375,5.296581188,-28.5,-13.73,24,0
VAAM,7/11/95,-31.39125,1.314161371,-34.68,-29.32,24,0
VAAM,7/12/95,-32.93458333,3.034927088,-38.17,-29.38,24,0
VAAM,7/13/95,-31.49041667,1.36954286,-32.47,-25.91,24,0
VAAM,7/14/95,-24.49166667,4.653586431,-33.16,-18.69,24,0
VAAM,7/15/95,-38.10958333,2.101983492,-40.87,-33.7,24,0
VAAM,7/16/95,-42.04666667,0.607479945,-43.35,-41.01,24,0
VAAM,7/17/95,-44.42291667,0.531351674,-45.15,-43.15,24,0
VAAM,7/18/95,-33.805,11.95409226,-44.67,-11.92,24,0
VAAM,7/19/95,-15.88041667,5.327300058,-23.02,-9,24,0
VAAM,7/20/95,-19.09958333,4.438105235,-24.64,-13.64,24,0
VAAM,7/21/95,-21.1575,3.767940563,-27.02,-16.24,24,0
VAAM,7/22/95,-21.80041667,3.308253814,-27.23,-18.39,24,0
VAAM,7/23/95,-31.38666667,2.368809399,-33.02,-25.59,24,0
VAAM,7/24/95,-33.47,2.253206411,-35.97,-27.68,24,0
VAAM,7/25/95,-37.85208333,1.069087295,-39.83,-36.21,24,0
VAAM,7/26/95,-38.12208333,3.488885432,-40.8,-30.13,24,0
VAAM,7/27/95,-28.15958333,5.0696235,-35.19,-18.17,24,0
VAAM,7/28/95,-27.28375,5.036545411,-35.19,-21.89,24,0
VAAM,7/29/95,-36.54166667,0.932918127,-38.29,-35.47,24,0
VAAM,7/30/95,-36.34416667,2.105266516,-39.41,-32.88,24,0
VAAM,7/31/95,-31.38958333,1.416884148,-34.26,-29.48,24,0
VAAM,8/1/95,-29.5475,9.707343813,-35.86,-10.17,24,0
VAAM,8/2/95,-12.52166667,4.586543329,-23.28,-9.12,24,0
VAAM,8/3/95,-21.61541667,5.450767779,-26.65,-12.43,24,0
VAAM,8/4/95,-17.3975,4.017872301,-24.56,-12.29,24,0
VAAM,8/5/95,-18.79083333,1.324767138,-20.5,-16.49,24,0
VAAM,8/6/95,-17.7375,0.576249116,-18.81,-16.54,24,0
VAAM,8/7/95,-23.58916667,4.908698505,-30.03,-16.22,24,0
VAAM,8/8/95,-33.00333333,1.950138605,-36.37,-30.13,24,0
VAAM,8/9/95,-37.75625,0.590944804,-38.47,-36.43,24,0
VAAM,8/10/95,-31.38958333,6.829046963,-38.66,-22.64,24,0
VAAM,8/11/95,-24.60083333,2.096311288,-28.87,-21.8,24,0
VAAM,8/12/95,-34.6525,4.309093771,-39.7,-26.62,24,0
VAAM,8/13/95,-41.65,0.861454786,-42.73,-39.86,24,0
VAAM,8/14/95,-22.00875,5.207403018,-36.43,-12.86,24,0
VAAM,8/15/95,-8.452083333,2.508701343,-14.44,-6.02,24,0
VAAM,8/16/95,-13.3525,4.373503471,-24.51,-8.93,24,0
VAAM,8/17/95,-28.58208333,1.629497066,-31.1,-24.45,24,0
VAAM,8/18/95,-30.23166667,0.97234216,-32.59,-28.99,24,0
VAAM,8/19/95,-36.06,1.487843493,-37.99,-32.95,24,0
VAAM,8/20/95,-35.9575,1.349029442,-37.93,-33.25,24,0
VAAM,8/21/95,-32.5325,0.601911809,-34.18,-31.49,24,0
VAAM,8/22/95,-21.50916667,7.274444199,-36.32,-16.59,24,0
VAAM,8/23/95,-23.995,4.441744663,-27.99,-15.54,24,0
VAAM,8/24/95,-27.33208333,1.283520902,-30.71,-25.86,24,0
VAAM,8/25/95,-34.6175,1.940406165,-38.29,-31.14,24,0
VAAM,8/26/95,-39.57041667,0.781984539,-40.97,-37.87,24,0
VAAM,8/27/95,-26.08958333,11.65769665,-41.65,-15.1,24,0
VAAM,8/28/95,-32.4975,3.962281128,-37.96,-26.86,24,0
VAAM,8/29/95,-40.81416667,1.316001575,-42.84,-38.44,24,0
VAAM,8/30/95,-44.12375,0.49660423,-45.06,-43.19,24,0
VAAM,8/31/95,-44.62416667,1.159111041,-45.73,-42.05,24,0
VAAM,9/1/95,-39.86916667,1.090795149,-41.83,-37.99,24,0
VAAM,9/2/95,-39.19125,1.954769668,-41.61,-35.94,24,0
VAAM,9/3/95,-37.63958333,1.111405218,-39.54,-35.71,24,0
VAAM,9/4/95,-38.75333333,2.399631614,-43.43,-35.84,24,0
VAAM,9/5/95,-45.53333333,0.98213019,-47.52,-43.79,24,0
VAAM,9/6/95,-48.76333333,0.493291224,-49.46,-47.72,24,0
VAAM,9/7/95,-48.5725,1.328226179,-49.69,-45.02,24,0
VAAM,9/8/95,-41.7775,1.094008386,-43.51,-39.57,24,0
VAAM,9/9/95,-44.78708333,0.548622617,-45.33,-43.59,24,0
VAAM,9/10/95,-43.1575,1.113967645,-44.93,-41.54,24,0
VAAM,9/11/95,-44.4125,1.005083817,-46.43,-42.65,24,0
VAAM,9/12/95,-48.10833333,0.552839836,-48.84,-46.63,24,0
VAAM,9/13/95,-44.065,2.990198481,-48.14,-39.6,24,0
VAAM,9/14/95,-31.61583333,7.986549517,-39.99,-18.21,24,0
VAAM,9/15/95,-18.12125,0.873510222,-20.25,-16.8,24,0
VAAM,9/16/95,-17.6075,0.972349239,-19.43,-15.78,24,0
VAAM,9/17/95,-11.24041667,2.490593572,-16.12,-8.18,24,0
VAAM,9/18/95,-9.73,0.455058525,-11.41,-9.15,24,0
VAAM,9/19/95,-21.76583333,2.899167672,-26.42,-14.79,24,0
VAAM,9/20/95,-16.0175,4.738650744,-25.29,-11.45,24,0
VAAM,9/21/95,-29.41583333,1.417425457,-31,-25.88,24,0
VAAM,9/22/95,-30.02708333,0.895318642,-31.92,-27.94,24,0
VAAM,9/23/95,-28.54458333,4.9771233,-32.56,-15.95,24,0
VAAM,9/24/95,-14.24125,3.601613542,-20.25,-9.57,24,0
VAAM,9/25/95,-24.155,4.465245502,-29.03,-14.27,24,0
VAAM,9/26/95,-18.62833333,3.762577362,-24.45,-14.83,24,0
VAAM,9/27/95,-20.07458333,2.925762597,-25.41,-14.3,24,0
VAAM,9/28/95,-24.94125,5.213912253,-29.71,-14.38,24,0
VAAM,9/29/95,-19.71,1.34841614,-22.55,-17.85,24,0
VAAM,9/30/95,-22.30083333,3.20845746,-26.06,-13.36,24,0
VAAM,10/1/95,-14.33166667,4.006818826,-19.67,-8.8,24,0
VAAM,10/2/95,-10.7525,1.474965733,-13.49,-8.91,24,0
VAAM,10/3/95,-12.5525,3.391064024,-18.53,-6.68,24,0
VAAM,10/4/95,-15.18541667,3.891262206,-20.94,-10.61,24,0
VAAM,10/5/95,-18.87541667,0.592371646,-19.81,-17.88,24,0
VAAM,10/6/95,-20.29541667,0.631815735,-22.04,-19,24,0
VAAM,10/7/95,-25.89791667,1.056100206,-27.83,-22.99,24,0
VAAM,10/8/95,-27.215,2.448958962,-30.75,-23.79,24,0
VAAM,10/9/95,-21.16333333,2.785110515,-25.93,-15.63,24,0
VAAM,10/10/95,-24.46708333,2.015160969,-27.79,-20.59,24,0
VAAM,10/11/95,-24.095,1.625658395,-26.2,-20.65,24,0
VAAM,10/12/95,-25.55875,4.90141977,-31.42,-17.01,24,0
VAAM,10/13/95,-21.20166667,1.897693489,-24.72,-19.08,24,0
VAAM,10/14/95,-20.64958333,6.932873474,-28.21,-10.62,24,0
VAAM,10/15/95,-11.17166667,2.220858954,-13.84,-6.27,24,0
VAAM,10/16/95,-12.82916667,1.717394175,-15.22,-10.22,24,0
VAAM,10/17/95,-14.52875,3.600685095,-20.33,-9.51,24,0
VAAM,10/18/95,-13.17916667,2.15161803,-16.6,-9.11,24,0
VAAM,10/19/95,-12.91458333,1.199275068,-14.91,-10.44,24,0
VAAM,10/20/95,-14.57958333,0.996081362,-16.22,-12.67,24,0
VAAM,10/21/95,-13.75833333,2.485041626,-16.75,-10.57,24,0
VAAM,10/22/95,-17.08375,2.110443622,-20.75,-13.71,24,0
VAAM,10/23/95,-18.35125,3.18126214,-23.28,-13.39,24,0
VAAM,10/24/95,-17.85625,2.585995414,-21.82,-13.27,24,0
VAAM,10/25/95,-14.32041667,1.680583437,-17.3,-11.92,24,0
VAAM,10/26/95,-18.94833333,1.536576281,-21.43,-17.1,24,0
VAAM,10/27/95,-21.20333333,2.489184722,-25.68,-17.29,24,0
VAAM,10/28/95,-21.17958333,2.999112157,-26.3,-17.24,24,0
VAAM,10/29/95,-19.98791667,3.358013102,-25.96,-15.03,24,0
VAAM,10/30/95,-18.89166667,3.835284318,-24.47,-11.97,24,0
VAAM,10/31/95,-16.3925,3.64028218,-22.24,-10.97,24,0
VAAM,11/1/95,-15.86166667,2.562957983,-22.21,-12.13,24,0
VAAM,11/2/95,-11.87416667,5.301480447,-19.67,-6.28,24,0
VAAM,11/3/95,-7.035,2.407497348,-11.06,-4.62,24,0
VAAM,11/4/95,-9.5375,2.493491092,-13.67,-5.75,24,0
VAAM,11/5/95,-9.13625,1.21930776,-10.79,-6.61,24,0
VAAM,11/6/95,-11.90666667,3.095327006,-17.95,-7.94,24,0
VAAM,11/7/95,-11.72666667,3.184039909,-16.13,-7.12,24,0
VAAM,11/8/95,-11.84208333,1.702920711,-14.2,-8.75,24,0
VAAM,11/9/95,-10.18333333,3.902985108,-16.75,-5.82,24,0
VAAM,11/10/95,-6.64375,2.162003524,-11.32,-3.38,24,0
VAAM,11/11/95,-0.036666667,1.810543197,-3.44,1.99,24,0
VAAM,11/12/95,0.430416667,0.885680672,-1.07,2.48,24,0
VAAM,11/13/95,-2.395416667,1.247205499,-5.31,-0.82,24,0
VAAM,11/14/95,-4.52125,2.42049099,-8.71,-0.78,24,0
VAAM,11/15/95,-5.558333333,2.263027343,-9.09,-2.57,24,0
VAAM,11/16/95,-3.171666667,2.089426105,-5.86,-0.16,24,0
VAAM,11/17/95,-3.466666667,2.078914154,-8.25,-0.63,24,0
VAAM,11/18/95,-4.970416667,2.265239174,-9.12,-2.48,24,0
VAAM,11/19/95,-4.954583333,2.455239259,-9.55,-0.48,24,0
VAAM,11/20/95,-7.545833333,1.442199156,-10.96,-6.07,24,0
VAAM,11/21/95,-3.597741935,2.021255428,-8.87,-0.87,62,0
VAAM,11/22/95,-0.461458333,1.849641774,-4.03,1.85,96,0
VAAM,11/23/95,1.952604167,1.411748632,-0.48,4.7,96,0
VAAM,11/24/95,2.660208333,1.429448167,0.3,5.96,96,0
VAAM,11/25/95,2.250625,2.060859204,-2.48,6.13,96,0
VAAM,11/26/95,-1.142083333,0.855118233,-3.26,0.95,96,0
VAAM,11/27/95,-1.32625,2.031104055,-4.98,1.24,96,0
VAAM,11/28/95,-0.989479167,1.438192118,-3.7,1.28,96,0
VAAM,11/29/95,-0.806458333,1.2115375,-2.95,1.41,96,0
VAAM,11/30/95,-2.243854167,1.569424547,-5.18,0.02,96,0
VAAM,12/1/95,-0.683854167,2.451911121,-5.27,1.85,96,0
VAAM,12/2/95,0.8096875,2.374205442,-3.21,3.81,96,0
VAAM,12/3/95,0.568125,2.141105623,-3.29,3.42,96,0
VAAM,12/4/95,-0.6534375,0.767080354,-2.45,0.62,96,0
VAAM,12/5/95,-0.784375,0.773286646,-2.03,0.25,96,0
VAAM,12/6/95,-0.793645833,1.292698621,-3.02,1.49,96,0
VAAM,12/7/95,-1.454375,1.196236038,-3.6,0.67,96,0
VAAM,12/8/95,-0.503125,1.104146551,-2.8,1.32,96,0
VAAM,12/9/95,1.303645833,1.657597577,-1.41,3.5,96,0
VAAM,12/10/95,3.073541667,2.197035792,-0.29,6.2,96,0
VAAM,12/11/95,3.3165625,1.770118538,0.64,5.41,96,0
VAAM,12/12/95,2.044895833,1.300416933,-0.01,4.68,96,0
VAAM,12/13/95,0.6640625,1.551106619,-2.2,2.67,96,0
VAAM,12/14/95,1.829375,1.440181869,-0.81,4.44,96,0
VAAM,12/15/95,2.6884375,1.516389985,-0.05,5.93,96,0
VAAM,12/16/95,0.573854167,1.185575028,-1.32,2.69,96,0
VAAM,12/17/95,-0.8928125,1.205983943,-3.61,1.81,96,0
VAAM,12/18/95,-0.3553125,2.475207999,-4.46,3.05,96,0
VAAM,12/19/95,0.18125,1.844373093,-2.49,5.27,96,0
VAAM,12/20/95,0.389375,1.983736407,-3.2,2.68,96,0
VAAM,12/21/95,3.5590625,1.890834446,0.55,6.8,96,0
VAAM,12/22/95,4.952916667,1.042808876,2.57,6.79,96,0
VAAM,12/23/95,6.5096875,1.880619413,3.26,9.94,96,0
VAAM,12/24/95,5.443229167,1.50261491,1.63,8.01,96,0
VAAM,12/25/95,3.63875,0.756435199,1.75,4.68,96,0
VAAM,12/26/95,1.771770833,0.579684115,0.09,2.68,96,0
VAAM,12/27/95,1.960416667,1.483710084,-0.95,4.39,96,0
VAAM,12/28/95,0.88625,1.643061488,-2.18,2.75,96,0
VAAM,12/29/95,0.575625,1.084207023,-1.8,2.75,96,0
VAAM,12/30/95,-0.725104167,1.664527747,-2.96,2.49,96,0
VAAM,12/31/95,0.089791667,1.56594816,-2.96,3.06,96,0
VAAM,1/1/96,-0.453645833,0.884878963,-2.57,0.92,96,0
VAAM,1/2/96,-1.975208333,1.233280588,-3.84,0.17,96,0
VAAM,1/3/96,-1.749583333,0.952432804,-3.4,-0.28,96,0
VAAM,1/4/96,-2.009791667,1.001990628,-3.66,0.2,96,0
VAAM,1/5/96,-2.500208333,1.492707169,-4.7,0.49,96,0
VAAM,1/6/96,-2.934791667,1.757154386,-5.28,0.23,96,0
VAAM,1/7/96,-1.754791667,0.942908132,-3.16,-0.07,96,0
VAAM,1/8/96,-0.985416667,1.968763393,-4.77,1.49,96,0
VAAM,1/9/96,-0.000625,1.533726671,-2.77,2.63,96,0
VAAM,1/10/96,2.611666667,2.024486766,-0.65,7.17,96,0
VAAM,1/11/96,3.815208333,1.809758913,0.52,7.44,96,0
VAAM,1/12/96,-0.042395833,0.697437029,-1.53,1.51,96,0
VAAM,1/13/96,-0.82375,0.699534055,-1.89,0.25,96,0
VAAM,1/14/96,-0.252083333,1.264060222,-2.07,1.81,96,0
VAAM,1/15/96,-2.145625,1.427049081,-5.21,-0.15,96,0
VAAM,1/16/96,-1.493125,1.173964325,-3.63,1.13,96,0
VAAM,1/17/96,-0.558229167,1.333847616,-2.23,2.71,96,0
VAAM,1/18/96,-0.410729167,1.152998147,-2.68,1.52,96,0
VAAM,1/19/96,-1.43625,1.538986167,-3.69,1.81,96,0
VAAM,1/20/96,-0.842291667,1.469994256,-3.47,1.29,96,0
VAAM,1/21/96,-1.329270833,1.329024371,-3.46,1.46,96,0
VAAM,1/22/96,-0.373020833,2.821131583,-6.47,2.96,96,0
VAAM,1/23/96,0.122065217,1.703933741,-3.17,3.26,92,0
VAAM,1/24/96,-2.2828125,1.536550274,-4.45,-0.38,96,0
VAAM,1/25/96,0.598229167,2.621551166,-3.75,3.96,96,0
VAAM,1/26/96,-1.0753125,1.831553814,-4.06,2.03,96,0
VAAM,1/27/96,0.370625,2.172177085,-3.95,3.96,96,0
VAAM,1/28/96,1.010416667,1.372175312,-1.46,3.61,96,0
VAAM,1/29/96,0.122708333,1.632967901,-2.42,2.96,96,0
VAAM,1/30/96,3.292291667,1.120358476,0.68,5.48,96,0
VAAM,1/31/96,2.556458333,2.6443246,-1.67,6.55,96,0